TimeMDT,TemperatureF,Dew PointF,Humidity,Sea Level PressureIn,VisibilityMPH,Wind Direction,Wind SpeedMPH,Gust SpeedMPH,PrecipitationIn,Events,Conditions,WindDirDegrees,DateUTC
12:35 AM,37.4,33.8,87,30.24,10.0,SE,5.8,-,N/A,,Clear,130,2013-09-28 06:35:00
1:15 AM,37.4,32.0,81,30.23,10.0,East,6.9,-,N/A,,Clear,100,2013-09-28 07:15:00
1:35 AM,35.6,32.0,87,30.24,10.0,ESE,4.6,-,N/A,,Clear,120,2013-09-28 07:35:00
1:55 AM,35.6,32.0,87,30.23,10.0,ESE,3.5,-,N/A,,Clear,110,2013-09-28 07:55:00
2:15 AM,35.6,30.2,81,30.24,10.0,ESE,3.5,-,N/A,,Clear,110,2013-09-28 08:15:00
2:35 AM,35.6,32.0,87,30.24,10.0,East,3.5,-,N/A,,Clear,100,2013-09-28 08:35:00
2:55 AM,35.6,32.0,87,30.24,10.0,East,3.5,-,N/A,,Clear,100,2013-09-28 08:55:00
3:15 AM,35.6,32.0,87,30.24,10.0,Calm,Calm,-,N/A,,Clear,0,2013-09-28 09:15:00
3:35 AM,35.6,32.0,87,30.24,10.0,Calm,Calm,-,N/A,,Clear,0,2013-09-28 09:35:00
3:55 AM,35.6,30.2,81,30.24,10.0,South,3.5,-,N/A,,Clear,170,2013-09-28 09:55:00
4:15 AM,35.6,30.2,81,30.25,10.0,South,4.6,-,N/A,,Clear,170,2013-09-28 10:15:00
4:35 AM,35.6,32.0,87,30.25,10.0,SSE,5.8,-,N/A,,Clear,150,2013-09-28 10:35:00
4:55 AM,35.6,32.0,87,30.24,10.0,ESE,3.5,-,N/A,,Clear,120,2013-09-28 10:55:00
5:15 AM,35.6,32.0,87,30.25,10.0,SE,4.6,-,N/A,,Clear,130,2013-09-28 11:15:00
5:35 AM,33.8,30.2,87,30.25,10.0,SE,4.6,-,N/A,,Clear,130,2013-09-28 11:35:00
5:55 AM,35.6,32.0,87,30.25,10.0,SE,8.1,-,N/A,,Clear,140,2013-09-28 11:55:00
6:35 AM,35.6,32.0,87,30.26,10.0,ESE,3.5,-,N/A,,Clear,110,2013-09-28 12:35:00
6:55 AM,35.6,30.2,81,30.26,15.0,Calm,Calm,-,N/A,,Clear,0,2013-09-28 12:55:00
7:58 AM,32.0,28.4,87,30.27,15.0,ESE,5.8,-,N/A,,Scattered Clouds,120,2013-09-28 13:58:00
8:47 AM,37.4,35.6,93,30.28,15.0,Variable,4.6,-,N/A,,Clear,0,2013-09-28 14:47:00
9:59 AM,46.4,33.8,62,30.29,15.0,Variable,4.6,-,N/A,,Clear,0,2013-09-28 15:59:00
10:55 AM,50.0,33.8,54,30.30,15.0,Variable,4.6,-,N/A,,Clear,0,2013-09-28 16:55:00
11:55 AM,51.8,35.6,54,30.28,15.0,Variable,4.6,-,N/A,,Clear,0,2013-09-28 17:55:00
12:50 PM,53.6,37.4,54,30.27,15.0,Variable,4.6,-,N/A,,Clear,0,2013-09-28 18:50:00
2:50 PM,57.2,44.6,63,30.24,15.0,Variable,4.6,-,N/A,,Clear,0,2013-09-28 20:50:00
3:59 PM,60.8,32.0,34,30.20,15.0,Variable,4.6,-,N/A,,Clear,0,2013-09-28 21:59:00
4:55 PM,64.4,32.0,30,30.19,15.0,Variable,4.6,-,N/A,,Clear,0,2013-09-28 22:55:00
5:50 PM,62.6,35.6,37,30.18,15.0,Variable,4.6,-,N/A,,Clear,0,2013-09-28 23:50:00
6:52 PM,59.0,37.4,45,30.16,15.0,Calm,Calm,-,N/A,,Scattered Clouds,0,2013-09-29 00:52:00
7:53 PM,53.6,42.8,67,30.16,15.0,Calm,Calm,-,N/A,,Partly Cloudy,0,2013-09-29 01:53:00
8:49 PM,50.0,39.2,66,30.17,15.0,ESE,6.9,-,N/A,,Partly Cloudy,120,2013-09-29 02:49:00
9:15 PM,50.0,39.2,66,30.17,10.0,SSE,5.8,-,N/A,,Clear,150,2013-09-29 03:15:00
9:35 PM,48.2,37.4,66,30.17,10.0,SE,8.1,-,N/A,,Clear,140,2013-09-29 03:35:00
9:55 PM,48.2,37.4,66,30.17,10.0,SSE,5.8,-,N/A,,Clear,150,2013-09-29 03:55:00
10:15 PM,48.2,37.4,66,30.18,10.0,SE,4.6,-,N/A,,Clear,130,2013-09-29 04:15:00
10:35 PM,48.2,37.4,66,30.17,10.0,Calm,Calm,-,N/A,,Clear,0,2013-09-29 04:35:00
10:55 PM,46.4,37.4,71,30.17,10.0,East,4.6,-,N/A,,Clear,100,2013-09-29 04:55:00
11:15 PM,44.6,35.6,71,30.17,10.0,Calm,Calm,-,N/A,,Clear,0,2013-09-29 05:15:00
11:35 PM,44.6,35.6,71,30.17,10.0,South,3.5,-,N/A,,Clear,190,2013-09-29 05:35:00
11:55 PM,44.6,35.6,71,30.18,10.0,Calm,Calm,-,N/A,,Clear,0,2013-09-29 05:55:00